Regional Weather Roundup
Issued by NWS Cleveland, OH

Current Version | Previous Version | Text Only | Print | Product List | Glossary On
Versions: 1 2 3 4 5 6 7 8 9 10 11 12 13 14 15 16 17 18 19 20 21 22 23 24 25 26 27 28 29 30 31 32 33 34 35 36 37 38 39 40 41 42 43 44 45 46 47 48 49 50
000 ASUS41 KCLE 252200 RWRCLE OHIO REGIONAL WEATHER ROUNDUP NATIONAL WEATHER SERVICE WILMINGTON, OH 600 PM EDT SAT APR 25 2015 NOTE: "FAIR" INDICATES FEW OR NO CLOUDS BELOW 12,000 FEET WITH NO SIGNIFICANT WEATHER AND/OR OBSTRUCTIONS TO VISIBILITY. OHZ001>008-015>018-024>027-034-035-043-044-252300- NORTHWEST OHIO CITY SKY/WX TMP DP RH WIND PRES REMARKS DEFIANCE LGT RAIN 44 37 76 NE9 29.79F FINDLAY LGT RAIN 43 35 73 NE14 29.77R TOLEDO EXPRESS CLOUDY 45 24 43 E13 29.80R TOLEDO EXEC CLOUDY 46 28 49 NE14 29.81R LIMA LGT RAIN 45 42 89 NE6 29.74S FOG $$ OHZ009>014-019>023-028>033-038-089-252300- NORTHEAST OHIO CITY SKY/WX TMP DP RH WIND PRES REMARKS CLE-HOPKINS CLOUDY 43 25 49 N17 29.79R CLE-LAKEFRONT MOSUNNY 43 30 60 NE20G26 29.77R CUY CO. ARPT PTSUNNY 50 25 37 NE16 29.76S LORAIN-ELYRIA CLOUDY 43 25 49 NE13 29.77R ASHTABULA SUNNY 48 20 32 N10G20 29.77S AKRON-CANTON CLOUDY 52 22 30 E7 29.72S WOOSTER NOT AVBL MANSFIELD CLOUDY 49 30 48 SE3 29.74R YOUNGSTOWN PTSUNNY 54 18 24 NE8 29.71F $$ OHZ042-051>053-060>062-070>072-077>081-252300- SOUTHWEST OHIO CITY SKY/WX TMP DP RH WIND PRES REMARKS CINC-COVINGTON LGT RAIN 45 45 100 NE14G21 29.65R FOG CINC-LUNKEN LGT RAIN 44 42 93 NE10 29.68R HAMILTON LGT RAIN 46 44 93 E12 29.66F DAYTON CLOUDY 46 42 86 NE14 29.70R WRIGHT-PAT AFB NOT AVBL DAYTON GENERAL CLOUDY 44 41 89 E14 29.68R WILMINGTON CLOUDY 43 40 89 NE10G20 29.68R $$ OHZ036-037-039>041-045>050-054>059-063>069-073>076-082>088-252300- CENTRAL AND SOUTHEAST OHIO CITY SKY/WX TMP DP RH WIND PRES REMARKS COLUMBUS RAIN 44 44 100 NE5 29.74R FOG OSU AIRPORT RAIN 44 41 89 NE6 29.74R FOG BOLTON FIELD RAIN 43 43 100 NE6 29.75R FOG RICKENBACK AFB NOT AVBL NEWARK LGT RAIN 45 41 86 NW3 29.74R FOG MARION LGT RAIN 47 40 76 NE10 29.76R LANCASTER RAIN 45 41 87 N7 29.75R FOG ZANESVILLE LGT RAIN 44 40 85 E5 29.70F NEW PHILLY CLOUDY 53 30 41 NE5 29.71S $$

USA.gov is the U.S. government's official web portal to all federal, state and local government web resources and services.